| time (UTC) | temp F | wind direction | speed knots | gust knots | rain 1hr in | rain 24hr in | rain mn in | humidity % | barometer mb |
| 20260507090719 | 62 | 304 | 1.7 | 4.3 | 0.00 | 0.09 | 0.00 | 72 | 1013.6 |
| 20260507085619 | 63 | 319 | 1.7 | 2.6 | 0.00 | 0.18 | 0.00 | 74 | 1013.7 |
| 20260507084519 | 64 | 301 | 2.6 | 6.1 | 0.00 | 0.21 | 0.00 | 71 | 1013.6 |
| 20260507083420 | 64 | 281 | 0.9 | 1.7 | 0.00 | 0.24 | 0.00 | 69 | 1013.4 |
| 20260507082319 | 64 | 304 | 1.7 | 2.6 | 0.00 | 0.25 | 0.00 | 67 | 1013.4 |
| 20260507081220 | 63 | 318 | 0.9 | 2.6 | 0.00 | 0.27 | 0.00 | 69 | 1013.5 |
| 20260507080119 | 63 | 30 | 0.0 | 0.0 | 0.00 | 0.29 | 0.00 | 68 | 1013.4 |
| 20260507075020 | 62 | 30 | 0.9 | 2.6 | 0.00 | 0.29 | 0.00 | 72 | 1013.3 |
| 20260507073918 | 61 | 355 | 0.0 | 0.0 | 0.00 | 0.29 | 0.00 | 75 | 1013.2 |
| 20260507072819 | 60 | 355 | 0.0 | 0.0 | 0.00 | 0.29 | 0.00 | 77 | 1013.2 |
| 20260507071718 | 60 | 355 | 0.0 | 0.0 | 0.00 | 0.29 | 0.00 | 79 | 1013.1 |
| 20260507070619 | 59 | 355 | 0.9 | 1.7 | 0.00 | 0.30 | 0.00 | 80 | 1013.0 |
| 20260507065520 | 59 | 355 | 0.0 | 1.7 | 0.00 | 0.30 | 0.00 | 81 | 1012.9 |
| 20260507064419 | 58 | 355 | 0.0 | 0.0 | 0.00 | 0.31 | 0.00 | 82 | 1012.8 |
| 20260506231318 | 57 | 355 | 0.9 | 2.6 | 0.00 | 0.57 | 0.00 | 81 | 1010.6 |
| 20260506230219 | 57 | 355 | 0.9 | 1.7 | 0.00 | 0.57 | 0.00 | 80 | 1010.5 |
| 20260506225120 | 57 | 0 | 0.9 | 2.6 | 0.00 | 0.57 | 0.00 | 80 | 1010.4 |
| 20260506224019 | 57 | 0 | 0.9 | 1.7 | 0.00 | 0.57 | 0.00 | 80 | 1010.4 |
| 20260506222920 | 57 | 11 | 0.9 | 1.7 | 0.00 | 0.57 | 0.00 | 80 | 1010.5 |
| 20260506221818 | 57 | 13 | 0.9 | 1.7 | 0.00 | 0.57 | 0.00 | 80 | 1010.7 |
| 20260506220718 | 58 | 13 | 0.0 | 0.0 | 0.00 | 0.57 | 0.00 | 78 | 1010.6 |
| 20260506215619 | 58 | 13 | 0.0 | 0.9 | 0.00 | 0.57 | 0.57 | 77 | 1010.5 |
| 20260506214520 | 58 | 13 | 0.9 | 0.9 | 0.00 | 0.57 | 0.57 | 76 | 1010.3 |
| 20260506213420 | 59 | 19 | 0.9 | 1.7 | 0.00 | 0.57 | 0.57 | 75 | 1010.4 |
| 20260506212319 | 58 | 23 | 1.7 | 2.6 | 0.00 | 0.57 | 0.57 | 76 | 1010.4 |
| 20260506211219 | 58 | 16 | 0.9 | 2.6 | 0.00 | 0.57 | 0.57 | 77 | 1010.3 |
| 20260506210118 | 58 | 10 | 0.9 | 2.6 | 0.00 | 0.57 | 0.57 | 78 | 1010.2 |
| 20260506205019 | 58 | 10 | 1.7 | 4.3 | 0.00 | 0.58 | 0.57 | 78 | 1010.3 |
| 20260506203918 | 58 | 11 | 0.9 | 2.6 | 0.00 | 0.59 | 0.57 | 77 | 1010.2 |
| 20260506202819 | 58 | 10 | 2.6 | 4.3 | 0.00 | 0.62 | 0.57 | 77 | 1010.1 |
| 20260506201720 | 58 | 3 | 2.6 | 4.3 | 0.00 | 0.63 | 0.57 | 77 | 1009.9 |
| 20260506200620 | 58 | 10 | 2.6 | 4.3 | 0.00 | 0.69 | 0.57 | 78 | 1009.9 |
| 20260506195518 | 57 | 354 | 2.6 | 5.2 | 0.00 | 0.69 | 0.57 | 81 | 1010.0 |
| 20260506194419 | 57 | 349 | 2.6 | 4.3 | 0.00 | 0.69 | 0.57 | 82 | 1009.9 |
| 20260506192219 | 58 | 332 | 0.9 | 2.6 | 0.00 | 0.69 | 0.57 | 79 | 1009.5 |
| 20260506191120 | 59 | 12 | 0.9 | 1.7 | 0.00 | 0.69 | 0.57 | 76 | 1009.4 |
| 20260506190019 | 59 | 13 | 0.9 | 2.6 | 0.00 | 0.69 | 0.57 | 76 | 1009.2 |
| 20260506184920 | 59 | 4 | 0.9 | 1.7 | 0.00 | 0.69 | 0.57 | 76 | 1009.0 |
| 20260506183818 | 59 | 6 | 0.9 | 2.6 | 0.00 | 0.69 | 0.57 | 75 | 1008.8 |
| 20260506182719 | 60 | 10 | 1.7 | 2.6 | 0.00 | 0.69 | 0.57 | 75 | 1008.7 |
| 20260506181618 | 60 | 24 | 0.9 | 2.6 | 0.00 | 0.69 | 0.57 | 74 | 1008.5 |
| 20260506180519 | 60 | 36 | 2.6 | 7.0 | 0.00 | 0.69 | 0.57 | 74 | 1008.3 |
| 20260506175419 | 60 | 0 | 1.7 | 4.3 | 0.00 | 0.69 | 0.57 | 74 | 1008.1 |
| 20260506174319 | 61 | 348 | 4.3 | 10.4 | 0.00 | 0.69 | 0.57 | 73 | 1008.1 |
| 20260506173218 | 61 | 10 | 4.3 | 7.0 | 0.00 | 0.69 | 0.57 | 74 | 1007.8 |
| 20260506172120 | 62 | 356 | 6.1 | 10.4 | 0.00 | 0.69 | 0.57 | 73 | 1007.8 |
| 20260506171020 | 63 | 1 | 2.6 | 6.1 | 0.00 | 0.69 | 0.57 | 70 | 1007.4 |
| 20260506165920 | 65 | 321 | 0.0 | 1.7 | 0.00 | 0.69 | 0.57 | 67 | 1007.0 |
| 20260506164819 | 70 | 298 | 1.7 | 4.3 | 0.00 | 0.69 | 0.57 | 47 | 1006.8 |
| 20260506163720 | 71 | 194 | 4.3 | 11.3 | 0.00 | 0.69 | 0.57 | 48 | 1006.2 |
| 20260506162619 | 71 | 186 | 2.6 | 5.2 | 0.00 | 0.69 | 0.57 | 48 | 1006.1 |
| 20260506161518 | 72 | 187 | 7.0 | 14.8 | 0.00 | 0.69 | 0.57 | 49 | 1006.0 |
| 20260506160419 | 71 | 143 | 2.6 | 6.1 | 0.00 | 0.69 | 0.57 | 59 | 1005.8 |
| 20260506155320 | 71 | 132 | 5.2 | 10.4 | 0.00 | 0.69 | 0.57 | 72 | 1006.1 |
| 20260506154219 | 71 | 105 | 5.2 | 7.0 | 0.00 | 0.69 | 0.57 | 73 | 1006.2 |
| 20260506153119 | 70 | 103 | 5.2 | 10.4 | 0.00 | 0.69 | 0.57 | 75 | 1006.2 |
| 20260506152019 | 69 | 104 | 5.2 | 7.8 | 0.00 | 0.69 | 0.57 | 74 | 1006.3 |
| 20260506150919 | 69 | 106 | 7.8 | 15.6 | 0.00 | 0.69 | 0.57 | 76 | 1006.3 |
| 20260506145820 | 69 | 107 | 5.2 | 10.4 | 0.00 | 0.69 | 0.57 | 76 | 1006.5 |
| 20260506144720 | 69 | 92 | 5.2 | 6.1 | 0.00 | 0.69 | 0.57 | 77 | 1006.8 |
| 20260506143619 | 69 | 104 | 4.3 | 10.4 | 0.00 | 0.69 | 0.57 | 76 | 1006.8 |
| 20260506142518 | 68 | 91 | 7.0 | 13.9 | 0.00 | 0.69 | 0.57 | 77 | 1006.9 |
| 20260506141419 | 68 | 123 | 5.2 | 2.6 | 0.00 | 0.69 | 0.57 | 77 | 1007.0 |
| 20260506140320 | 68 | 115 | 7.8 | 10.4 | 0.00 | 0.69 | 0.57 | 77 | 1007.3 |
| 20260506135219 | 68 | 113 | 5.2 | 8.7 | 0.00 | 0.69 | 0.57 | 77 | 1007.5 |
| 20260506134120 | 67 | 98 | 7.8 | 13.0 | 0.00 | 0.69 | 0.57 | 81 | 1007.6 |
| 20260506133018 | 66 | 104 | 7.0 | 12.2 | 0.00 | 0.69 | 0.57 | 79 | 1007.8 |
| 20260506131919 | 66 | 113 | 5.2 | 6.1 | 0.00 | 0.69 | 0.57 | 80 | 1007.9 |
| 20260506130820 | 66 | 119 | 4.3 | 8.7 | 0.00 | 0.70 | 0.57 | 80 | 1007.9 |
| 20260506125719 | 66 | 132 | 1.7 | 13.0 | 0.00 | 0.70 | 0.57 | 81 | 1008.0 |
| 20260506124619 | 66 | 89 | 6.1 | 10.4 | 0.00 | 0.70 | 0.57 | 81 | 1008.0 |
| 20260506123520 | 65 | 88 | 5.2 | 6.1 | 0.00 | 0.70 | 0.57 | 81 | 1008.0 |
| 20260506122418 | 65 | 106 | 5.2 | 7.8 | 0.00 | 0.70 | 0.57 | 81 | 1008.1 |
| 20260506121318 | 65 | 96 | 5.2 | 10.4 | 0.00 | 0.70 | 0.57 | 82 | 1008.3 |
| 20260506120219 | 65 | 106 | 5.2 | 13.0 | 0.00 | 0.70 | 0.57 | 83 | 1008.3 |
| 20260506115120 | 64 | 96 | 4.3 | 12.2 | 0.00 | 0.70 | 0.57 | 85 | 1008.4 |
| 20260506114020 | 64 | 107 | 4.3 | 10.4 | 0.00 | 0.70 | 0.57 | 86 | 1008.4 |
| 20260506112919 | 63 | 108 | 7.0 | 10.4 | 0.00 | 0.70 | 0.57 | 86 | 1008.6 |
| 20260506111819 | 63 | 82 | 6.1 | 11.3 | 0.00 | 0.70 | 0.57 | 88 | 1008.5 |
| 20260506110718 | 62 | 95 | 4.3 | 7.8 | 0.00 | 0.70 | 0.57 | 88 | 1008.5 |
| 20260506105618 | 63 | 100 | 7.8 | 12.2 | 0.00 | 0.70 | 0.57 | 88 | 1008.7 |
| 20260506104519 | 62 | 96 | 7.0 | 13.0 | 0.00 | 0.70 | 0.57 | 89 | 1008.8 |
| 20260506103420 | 61 | 79 | 7.0 | 8.7 | 0.02 | 0.70 | 0.57 | 90 | 1008.7 |
| 20260506102319 | 61 | 104 | 5.2 | 10.4 | 0.07 | 0.70 | 0.57 | 90 | 1008.9 |
| 20260506101220 | 61 | 102 | 8.7 | 11.3 | 0.08 | 0.70 | 0.57 | 90 | 1008.8 |
| 20260506100119 | 60 | 119 | 4.3 | 6.1 | 0.11 | 0.70 | 0.57 | 92 | 1008.8 |
| 20260506095019 | 59 | 103 | 2.6 | 8.7 | 0.20 | 0.70 | 0.57 | 92 | 1008.7 |
| 20260506093918 | 59 | 92 | 4.3 | 7.8 | 0.22 | 0.69 | 0.56 | 92 | 1008.5 |
| 20260506092819 | 59 | 104 | 5.2 | 10.4 | 0.20 | 0.65 | 0.52 | 92 | 1008.7 |
| 20260506091720 | 58 | 88 | 6.1 | 11.3 | 0.18 | 0.63 | 0.50 | 92 | 1008.9 |